Regional Weather Roundup
Issued by NWS San Angelo, TX

Home | Current Version | Previous Version | Text Only | Print | Product List | Glossary On
Versions: 1 2 3 4 5 6 7 8 9 10 11 12 13 14 15 16 17 18 19 20 21 22 23 24 25 26 27 28 29 30 31 32 33 34 35 36 37 38 39 40 41 42 43 44 45 46 47 48 49 50
000
ASUS44 KSJT 290310
RWRSJT
WEST CENTRAL TEXAS REGIONAL WEATHER ROUNDUP
NATIONAL WEATHER SERVICE SAN ANGELO TX
1000 PM CDT MON JUL 28 2014

NOTE: "FAIR" INDICATES FEW OR NO CLOUDS BELOW 12,000 FEET WITH NO
SIGNIFICANT WEATHER AND/OR OBSTRUCTIONS TO VISIBILITY.

TXZ049-054-064>066-071>073-076>078-098-099-113-114-127-128-139-140-
154-155-168>170-290400
...LOCATIONS ACROSS WEST CENTRAL TEXAS...

CITY           SKY/WX    TMP DP  RH WIND       PRES   REMARKS
SAN ANGELO     CLEAR     85  66  53 NE13      30.11R
ABILENE        PTCLDY    84  61  45 E6        30.15R
DYESS AFB      PTCLDY    84  63  48 NE6       30.14R
JUNCTION       CLEAR     89  59  36 SE12      30.09R
SWEETWATER     PTCLDY    83  63  50 NE5       30.21R
BROWNWOOD      CLOUDY    81  64  57 NE5       30.12R
COLEMAN        PTCLDY    82  65  56 E8        30.14R
SONORA         PTCLDY    90  55  31 SE7       30.14R
OZONA          FAIR      90  55  31 S6        30.12R
BRADY          CLEAR     82  66  57 E12       30.12R
$$

TEXAS PANHANDLE/OKLAHOMA PANHANDLE

CITY           SKY/WX    TMP DP  RH WIND       PRES   REMARKS
AMARILLO       MOCLDY    69  64  84 SE7       30.29R
BORGER         CLOUDY    73  63  70 E3        30.27R
CANADIAN       CLOUDY    73  64  74 E5        30.23R
DALHART        MOCLDY    70  64  81 SE6       30.30R
DUMAS          MOCLDY    67  61  79 E7        30.29R
GUYMON         NOT AVBL
HEREFORD       CLOUDY    70  67  92 E5        30.29R
PAMPA          MOCLDY    67  63  86 S3        30.28R
PERRYTON       PTCLDY    69  58  68 CALM      30.26R
$$

SOUTHERN PANHANDLE/SOUTH PLAINS/ROLLING PLAINS

CITY           SKY/WX    TMP DP  RH WIND       PRES   REMARKS
LUBBOCK        MOCLDY    76  62  62 E9        30.24R
SNYDER         PTCLDY    83  64  52 NE10      30.19R
CHILDRESS      MOCLDY    72  65  78 CALM      30.22R
SEMINOLE       CLEAR     82  61  49 E13       30.21R
$$

PERMIAN BASIN

CITY           SKY/WX    TMP DP  RH WIND       PRES   REMARKS
MIDLAND        CLEAR     84  65  52 E21       30.15R
ODESSA         CLEAR     84  63  49 E18G26    30.16R
WINK           CLEAR     87  64  46 E24G30    30.10R
$$

FAR WEST/SOUTHWEST MOUNTAINS/TRANS PECOS

CITY           SKY/WX    TMP DP  RH WIND       PRES   REMARKS
ALPINE         CLEAR     80  51  36 SE10      30.27R
DRYDEN           N/A     91  54  28 E12       30.07R
EL PASO        PTCLDY    88  54  31 E8        30.13R
FORT STOCKTON  CLEAR     87  53  31 SE12      30.12R
GUADALUPE PASS CLEAR     77  51  40 E15       30.29R
MARFA          PTCLDY    72  55  56 E8        30.26R
PECOS          CLEAR     90  55  29 E10       30.07R
$$

DALLAS/FORT WORTH METROPLEX

CITY           SKY/WX    TMP DP  RH WIND       PRES   REMARKS
DFW AIRPORT    PTCLDY    83  63  50 NE8       30.10R
FTW MEACHAM    CLEAR     82  64  54 N9        30.10R
DAL-EXECUTIVE  PTCLDY    86  61  42 NE10      30.10R
GRAND PRAIRIE  PTCLDY    84  60  43 N7        30.10R
ADDISON        PTCLDY    82  59  44 NE8       30.11
MESQUITE       MOCLDY    80  60  51 N3        30.09
LANCASTER      MOCLDY    81  59  46 NE3       30.10R
$$

NORTH CENTRAL TEXAS

CITY           SKY/WX    TMP DP  RH WIND       PRES   REMARKS
SHRMAN/DENISON MOCLDY    79  64  60 CALM      30.13S
GAINESVILLE    PTCLDY    76  64  65 N3        30.15S
BRIDGEPORT     PTCLDY    76  63  62 CALM      30.15R
DENTON         CLEAR     76  64  66 N6        30.11R
WAXAHACHIE     MOCLDY    81  61  50 N5        30.11R
GRANBURY       PTCLDY    82  59  44 N5        30.12R
$$

WESTERN NORTH TEXAS

CITY           SKY/WX    TMP DP  RH WIND       PRES   REMARKS
WICHITA FALLS  PTCLDY    75  67  76 CALM      30.14R
VERNON         MOCLDY    76  66  72 CALM      30.17R
BRECKENRIDGE   PTCLDY    83  55  38 E8        30.13R
COMANCHE       MOCLDY    79  64  59 E5        30.12R
$$

CENTRAL AND SOUTH CENTRAL TEXAS

CITY           SKY/WX    TMP DP  RH WIND       PRES   REMARKS
AUSTIN/BERGSTM PTCLDY    87  68  52 E6        30.03R
WACO           CLOUDY    78  71  79 CALM      30.08R
HILLSBORO      MOCLDY    76  70  80 NE5       30.09R
TEMPLE         MOCLDY    81  66  61 NE7       30.08R
KILLEEN-GRAY   MOCLDY    84  68  58 NE6       30.09R
FORT HOOD      MOCLDY    84  69  60 NE3       30.09R
GEORGETOWN     CLEAR     84  70  61 NE8       30.07R
LAGO VISTA     FAIR      84  67  55 E7        30.09R
SAN MARCOS     CLEAR     82  61  47 CALM      30.05R
NEW BRAUNFELS  CLEAR     85  63  47 SE5       30.01S
RANDOLPH AFB   CLEAR     86  63  46 SE6       30.04R
SAN ANTONIO    PTCLDY    88  65  46 E3        30.04R
STINSON        PTCLDY    89  68  49 SE9       30.02R
PLEASANTON     NOT AVBL
LA GRANGE      CLEAR     89  73  59 S6        30.02R
GIDDINGS       PTCLDY    85  66  53 CALM      30.08R
$$

EAST TEXAS

CITY           SKY/WX    TMP DP  RH WIND       PRES   REMARKS
PARIS          MOCLDY    75  61  60 N8        30.11R
CLARKSVILLE    MOCLDY    77  65  66 NW3       30.09S
TYLER          CLOUDY    76  73  91 CALM      30.07R
LONGVIEW       CLOUDY    76  72  87 CALM      30.05R
PALESTINE      NOT AVBL
NACOGDOCHES    CLOUDY    73  72  94 NW3       30.06R
$$

TEXAS HILL COUNTRY AND EDWARDS PLATEAU

CITY           SKY/WX    TMP DP  RH WIND       PRES   REMARKS
LLANO          PTCLDY    86  66  51 E8        30.11R
HORSESHOE BAY  FAIR      86  60  40 E5        30.08R
KERRVILLE      CLEAR     83  63  50 E3        30.10R
FREDERICKSBRG  CLEAR     84  58  41 CALM      30.10R
ROCKSPRINGS    CLEAR     82  57  42 E6        30.15R
HONDO          CLEAR     84  64  50 NE6       30.05R
UVALDE         CLEAR     88  65  46 SE5       30.03R
DEL RIO        CLEAR     92  62  36 E8        30.00R
$$

SOUTHEAST TEXAS

CITY           SKY/WX    TMP DP  RH WIND       PRES   REMARKS
COLLEGE STN    MOCLDY    84  69  60 NE10      30.05R
CALDWELL       MOCLDY    84  72  65 NE3       30.08R
CROCKETT       CLOUDY    79  73  83 SE3       30.08S
BRENHAM        PTCLDY    85  70  60 CALM      30.05R
HUNTSVILLE     CLOUDY    80  69  69 N5        30.06R
CONROE         MOCLDY    79  75  87 N6        30.04R
HOUSTON BUSH   MOCLDY    87  73  62 S9        30.02F
HOUSTON HOBBY  PTCLDY    84  73  69 S7        30.04R
PERLAND        CLEAR     84  74  71 S6        30.06R
WHARTON        CLEAR     80  75  85 S6        30.05S
$$

THE UPPER TEXAS COAST

CITY           SKY/WX    TMP DP  RH WIND       PRES   REMARKS
ORANGE         MOCLDY    81  81 100 CALM      30.04F
PORT ARTHUR    PTCLDY    82  78  88 SW6       30.03S
GALVESTON      CLEAR     84  78  82 SW10      30.06S
ANGLETON       CLEAR     81  77  88 S7        30.05S
BAY CITY       CLEAR     82  81  98 S3        30.06R
$$

TEXAS COASTAL BEND, RIO GRANDE PLAINS DEEP SOUTH TEXAS

CITY           SKY/WX    TMP DP  RH WIND       PRES   REMARKS
VICTORIA       CLEAR     84  77  79 S12       30.05R
BEEVILLE       FAIR      83  73  72 SE10      30.04S
ROCKPORT       CLEAR     83  77  82 S10G17    30.04S
PORT ARANSAS   CLEAR     81  77  87 S8        30.05S
PORT LAVACA    CLEAR     81  77  88 S6        30.04S
CORPUS CHRISTI MOCLDY    82  75  79 S13       30.05R
KINGSVILLE NAS PTCLDY    83  76  79 SE12      30.04S
COTULLA        CLEAR     90  69  50 SE20      30.01R
LAREDO         CLEAR     93  68  44 E18G25    30.01R
BROWNSVILLE    CLEAR     81  75  82 E5        30.06R
PORT ISABEL    CLEAR     83  75  77 SE9       30.05R
HEBBRONVILLE   CLEAR     87  66  50 E13G18    30.05R
MCALLEN        CLEAR     85  72  65 SE13      30.04R
WESLACO        NOT AVBL
FALFURRIAS     CLEAR     81  71  71 SE9       30.04R
EDINBURG       CLEAR     86  71  60 SE10      30.04R
$$



USA.gov is the U.S. government's official web portal to all federal, state and local government web resources and services.